Overview Statistics Trail Chart Weather Telemetry Raw packets
 

This is the latest recevied weather packets stored in our database for station/object K7KAR-2. If no packets are shown the sender has not sent any weather packets the latest 10 day(s).

<< 17 18 19 20 21 22 23 >>
Time Temp. Humidity Pressure Rain* Wind** Luminosity Snow
1788497684 20.56° C 31% 1009.8 hPa 0 mm - 0 W/m² -
1788497379 20° C 32% 1009.7 hPa 0 mm - 0 W/m² -
1788497075 21.11° C 30% 1010.1 hPa 0 mm - 0 W/m² -
1788496771 19.44° C 31% 1009.9 hPa 0 mm - 0 W/m² -
1788496468 18.89° C 35% 1009.6 hPa 0 mm - 0 W/m² -
1788496163 18.89° C 37% 1009.8 hPa 0 mm - 0 W/m² -
1788495859 18.89° C 38% 1009.9 hPa 0 mm - 0 W/m² -
1788495553 20.56° C 35% 1009.9 hPa 0 mm - 0 W/m² -
1788495250 21.11° C 30% 1009.4 hPa 0 mm - 0 W/m² -
1788494946 20.56° C 30% 1009.4 hPa 0 mm - 0 W/m² -
1788494640 20.56° C 31% 1009.8 hPa 0 mm - 0 W/m² -
1788494336 20.56° C 32% 1009.7 hPa 0 mm - 0 W/m² -
1788494032 20.56° C 30% 1009.6 hPa 0 mm - 0 W/m² -
1788493731 21.11° C 31% 1009.8 hPa 0 mm - 0 W/m² -
1788493427 21.11° C 29% 1009.8 hPa 0 mm - 0 W/m² -
1788493123 20.56° C 29% 1009.7 hPa 0 mm - 0 W/m² -
1788492819 20.56° C 30% 1009.9 hPa 0 mm - 0 W/m² -
1788492514 20° C 31% 1009.8 hPa 0 mm - 0 W/m² -
1788492209 20° C 31% 1009.8 hPa 0 mm - 0 W/m² -
1788491903 20° C 32% 1009.9 hPa 0 mm - 0 W/m² -
1788491599 20° C 32% 1009.9 hPa 0 mm - 0 W/m² -
1788491315 20° C 32% 1009.9 hPa 0 mm - 0 W/m² -
1788490990 20.56° C 32% 1009.8 hPa 0 mm - 0 W/m² -
1788490686 20.56° C 30% 1009.6 hPa 0 mm - 0 W/m² -
1788490381 20.56° C 31% 1009.6 hPa 0 mm - 0 W/m² -

* Rain latest hour (hover to see other rain measurements)
** Current wind speed in m/s (hover to see current wind gust speed)